NOAA 16 DEB, 41060

Orbit data source: Space-Track

NOAA 16 DEB, 41060 is space debris in SSO originally from a launch on Thu, 21 Sep 2000 UTC launched from the Air Force Western Test Range (AFWTR). Debris objects in space refer to the collection of defunct objects orbiting the Earth. Examples of debris include non-operational satellites, rocket bodies, and fragments generated from explosions, collisions, or faulty payload assembly.

Loading next visibility...
Identifier
41060, 2000-055T
Orbit
SSO
Country
Flag of USUS
Related business
Manufacturer
Unknown
Mission
Spacecraft
Bus & Motor
Unknown
Mass
Unknown
Launch date (UTC)
2000-09-21 (26 years ago)
Launch vehicle
Unknown
Launch site
Air Force Western Test Range (AFWTR)
Object type
Payload
Rocket body
Debris
Shape & HBR
Unknown shape, 0.1 m
Radar Cross Section
Medium (>0.1 m² and <1 m²)

Expand to show TLE details & history
Last TLE update: 2 days ago

TLE from 2 days ago
0 NOAA 16 DEB
1 41060U 00055T   26171.43137183  .00001399  00000-0  44706-3 0  9994
2 41060  98.9586  69.0580 0079019  60.9546 299.9528 14.39568722552263
Epoch: 2026-06-20T10:21Z
TLE epoch observation values (Epoch: 2026-06-20T10:21:10.526Z)
Latitude
0.00005°
Longitude
5.11804°
Altitude
735.026 km
Speed
7.502 km/s
True Right ascension
04h 36m 13s
True Declination
0° 00' 00"
Sunlit
Object was in daylight at epoch
Visualization orbit readout
Latitude
Unknown
Longitude
Unknown
Altitude
Unknown
Speed
Unknown
Apparent Right ascension
Unknown
Apparent Declination
Unknown
Sunlit
N/A
Visualization observer readout
Local Sidereal Time
21:58:22
Azimuth
Unknown
Elevation
Unknown
Doppler factor
Unknown
Orbital elements
Apogee altitude
813.45 km
Perigee altitude
700.686 km
Semi-major axis
7,135.205 km
Eccentricity
0.0079
Inclination
98.9586°
RAAN
69.058°
Arg. of periapsis
60.9546°
True anomaly
299.16439°
Mean anomaly
299.9528°
Eccentric anomaly
299.55898°
Mean motion
3.60109 °/min
Orbital period
99.97 mins
BSTAR
0.00044706
Loading maneuver chart data...
Computing Atmospheric mass density...
Loading historical data...
Loading historical data...
Loading historical data...
Loading historical data...
Loading historical data...
Loading historical data...
Loading historical data...

Documentation

Showing up to 5 results
|